Wind_Speed
43 44 45 47 49 49 49 49 50 54 55 53 52 52 52 52 53 55 59 60 56 54 57 55 51 55 61 56 54 54 51 49 49 49 47 44 46 49 50 49 44 42 40 40 42 43 43 42 42 45 47 47 43 41 43 44 44 46 47 46 45 45 45 44 42 42 43 43 43 44 44 43 41 39 39 40 40 39 34 31 35 39 40 43 44 43
42 43 45 46 47 47 47 47 49 51 50 49 49 50 51 52 53 55 59 60 56 53 55 55 51 53 58 55 54 53 49 47 47 47 46 45 47 48 48 45 40 39 40 42 44 44 43 42 44 47 49 46 43 42 42 43 44 45 46 48 48 48 48 47 45 45 45 47 47 46 45 44 43 41 40 42 44 42 39 39 42 44 44 45 44 43
41 44 45 45 44 44 45 46 48 48 46 47 49 51 52 52 53 55 58 59 57 54 54 53 51 52 56 57 55 50 46 45 46 47 47 47 47 47 44 41 38 39 41 43 44 43 43 44 46 48 49 47 46 46 45 44 43 44 46 49 50 49 49 48 47 46 46 47 48 48 47 47 47 45 42 42 45 45 44 45 47 48 48 47 46 45
41 42 42 41 41 42 43 44 45 45 45 47 49 50 51 51 54 56 58 59 56 52 50 49 51 54 56 57 53 48 45 45 47 49 49 48 47 44 40 39 38 39 41 42 43 43 44 45 47 49 49 49 49 50 50 49 46 46 46 48 48 48 48 48 47 46 45 47 47 47 48 48 48 47 44 43 45 47 49 50 51 51 51 50 48 46
40 39 38 39 39 40 40 41 43 44 45 46 47 48 49 50 53 54 56 57 54 49 47 48 51 55 56 54 49 47 46 45 49 52 51 48 45 42 39 38 38 39 41 42 42 44 45 45 46 49 51 52 53 52 51 52 50 49 49 49 48 48 47 46 46 46 46 46 47 47 48 48 48 47 46 44 45 49 51 53 53 53 52 50 47 43
37 36 36 37 38 38 39 41 43 43 43 43 44 46 48 49 51 52 53 54 51 47 46 48 51 54 55 50 46 49 47 45 51 54 50 46 43 41 39 37 39 40 42 44 45 45 45 43 44 49 53 54 54 53 52 53 53 52 52 51 49 49 47 46 46 46 46 46 47 48 49 49 48 48 48 47 46 48 49 50 50 49 47 45 43 42
35 33 35 36 36 36 39 42 42 41 41 42 43 45 47 49 50 50 51 51 48 47 46 48 51 52 52 48 48 50 46 46 53 53 49 45 41 40 39 39 41 42 44 46 46 45 45 43 43 48 51 52 53 54 55 55 54 52 51 50 51 51 49 47 46 47 47 46 47 49 49 48 48 48 48 47 47 47 47 47 46 45 44 44 43 43
33 31 34 35 35 38 40 41 40 39 40 41 43 45 47 47 48 48 48 47 47 46 46 48 49 49 49 48 49 49 47 49 52 51 47 43 41 41 41 41 42 43 44 44 43 43 45 46 45 46 47 48 51 53 55 56 54 53 51 51 51 51 49 47 47 48 47 45 47 48 48 48 48 47 47 48 48 48 48 48 48 47 46 46 46 45
31 30 33 35 36 38 39 38 38 38 39 41 42 43 44 44 44 44 45 46 46 45 45 46 46 46 46 47 48 48 47 49 49 48 45 42 42 42 41 42 42 43 44 43 42 41 43 45 45 44 44 46 50 53 55 56 54 53 53 53 53 51 49 46 46 48 48 47 46 47 47 46 45 46 48 49 50 51 51 51 51 50 49 48 48 47
29 30 32 34 35 37 37 36 36 37 39 41 40 40 41 41 41 42 43 44 44 43 43 43 43 44 45 46 46 46 47 47 47 45 42 40 41 41 40 41 42 43 44 43 41 41 42 43 44 43 42 43 47 51 54 54 52 49 50 51 52 50 48 45 45 46 48 48 48 47 47 45 45 45 46 48 49 51 52 53 53 52 51 50 48 46
28 29 31 33 34 35 36 36 36 38 39 39 38 39 40 40 42 43 43 43 42 41 41 41 41 42 44 45 45 45 45 45 44 40 37 38 39 39 39 40 42 43 42 40 39 39 39 41 43 43 41 41 43 46 48 50 48 46 45 45 46 48 47 46 46 47 47 48 49 49 48 46 46 45 45 46 47 49 50 51 51 51 49 48 46 43
27 28 30 33 35 35 35 35 37 38 39 38 38 40 41 41 41 41 41 41 39 38 38 39 41 41 43 43 42 43 43 42 40 36 35 36 37 37 37 38 39 38 37 36 35 36 36 39 42 41 39 40 40 41 42 43 44 45 44 42 43 44 46 46 46 47 47 48 50 50 51 50 48 45 44 45 46 47 48 48 47 47 45 44 42 41
25 28 30 32 33 33 33 34 37 38 39 39 40 41 41 40 40 39 39 37 36 36 37 40 41 40 41 42 39 39 39 38 35 32 32 34 34 35 35 36 35 34 34 34 34 35 36 38 41 41 41 41 40 39 39 39 41 43 44 44 44 44 45 46 46 47 48 49 50 51 53 52 50 47 46 45 45 44 44 45 45 45 44 42 41 41
24 27 29 29 30 30 32 35 37 39 39 39 41 41 41 39 39 38 38 37 37 37 38 40 40 39 40 39 36 35 36 35 32 30 30 31 31 32 34 35 34 31 30 32 34 37 39 41 42 42 42 42 40 37 36 37 39 41 42 43 43 43 44 45 47 47 48 49 49 50 51 51 49 47 47 47 46 45 45 45 45 45 44 43 42 41
25 27 28 29 30 30 33 36 38 38 38 38 41 41 39 39 38 38 38 38 38 38 39 40 39 37 37 35 32 32 33 33 32 30 30 30 30 31 33 33 31 28 27 28 29 33 37 40 42 43 42 40 38 36 35 36 38 39 42 44 45 44 42 43 46 48 49 50 50 49 50 50 48 47 48 48 47 47 47 47 46 46 46 45 45 44
26 27 29 29 29 30 33 36 36 37 37 38 40 39 38 38 38 39 40 39 38 38 39 39 37 34 34 32 31 32 32 32 31 30 30 30 31 32 32 32 30 29 28 27 28 32 36 38 38 39 40 39 37 34 33 34 35 36 40 43 45 45 43 43 45 47 49 51 52 52 52 51 49 47 47 47 47 47 47 48 48 48 48 48 49 49
27 28 29 29 28 29 32 35 35 36 37 37 38 38 39 39 40 41 41 40 38 38 39 39 36 35 34 33 32 32 32 31 30 29 29 30 31 32 32 31 29 28 28 29 34 37 36 34 33 34 35 35 32 28 27 28 28 31 35 38 40 40 40 41 43 46 49 51 52 53 54 54 53 51 50 49 48 47 46 47 48 49 51 52 54 55
28 28 28 28 28 29 32 34 34 35 37 37 38 39 40 40 41 41 40 39 38 38 39 39 37 36 36 34 32 31 31 31 30 29 28 29 30 31 31 31 30 29 29 32 36 39 37 34 33 33 33 32 29 25 23 21 21 23 26 30 31 32 32 32 34 38 43 47 49 50 51 52 52 52 52 53 53 52 50 49 50 51 52 54 56 57
30 29 28 28 29 30 32 33 33 35 36 38 39 40 40 40 40 39 38 38 38 38 39 39 38 38 37 34 32 32 33 32 30 31 32 31 30 30 31 31 31 31 32 34 38 41 40 37 34 33 32 32 31 27 21 16 17 21 24 27 29 30 31 32 33 35 38 41 44 47 47 48 50 50 51 52 55 56 56 55 55 54 53 54 55 56
31 30 29 30 30 30 31 32 34 35 36 39 40 40 40 41 40 39 39 38 38 38 39 40 39 39 38 34 31 33 35 34 34 34 34 33 31 30 31 32 32 32 33 36 40 43 42 38 35 33 33 36 36 32 23 15 17 24 29 31 33 35 37 39 40 40 39 38 41 44 45 46 48 50 51 52 53 55 57 57 57 56 55 55 54 55
32 31 31 31 30 31 32 33 34 36 37 40 40 40 41 41 41 40 39 38 37 39 40 40 41 40 37 30 28 33 36 35 35 35 33 32 32 31 32 33 33 33 35 36 39 42 41 39 36 33 35 37 37 34 25 17 17 24 32 34 36 39 41 43 44 43 41 40 40 43 45 46 48 49 50 52 53 54 56 56 55 55 55 55 55 55
30 30 32 32 32 33 33 34 35 36 37 40 40 41 43 43 42 41 39 38 38 40 40 41 42 41 35 28 24 31 36 36 35 35 34 33 33 33 34 34 34 35 36 37 39 40 41 40 38 36 37 37 37 34 25 18 19 25 32 34 33 36 38 40 42 42 42 44 44 45 46 48 50 50 51 52 52 53 55 55 55 53 53 53 54 53
30 30 32 32 32 34 34 34 35 34 35 37 39 41 42 42 42 41 41 41 41 41 42 42 41 39 35 29 23 24 33 36 37 36 36 35 35 35 34 34 35 36 36 37 38 40 42 43 42 39 40 41 40 37 29 24 24 26 29 29 28 32 35 36 39 39 40 42 44 46 49 50 52 53 54 55 55 55 57 57 58 57 56 54 54 52
33 30 31 32 32 32 33 33 34 35 35 36 37 38 37 38 39 39 39 42 44 44 44 43 41 38 34 28 24 25 29 34 38 38 36 36 36 36 33 31 34 38 40 42 42 43 44 46 46 44 43 45 46 45 41 38 37 36 35 35 36 38 38 40 42 42 43 44 44 47 52 54 56 57 59 61 62 61 61 61 62 61 60 58 56 54
36 32 32 33 32 32 34 36 36 37 37 37 38 37 36 36 38 38 38 40 43 46 47 45 43 42 35 25 24 28 27 29 38 40 37 34 33 33 33 32 33 34 40 46 47 47 48 48 48 49 49 50 51 51 52 52 51 49 47 46 47 47 46 45 44 43 44 48 50 53 56 57 58 60 62 64 64 62 61 61 61 60 59 57 56 56
38 36 35 35 35 34 36 38 37 38 39 39 40 39 39 40 41 41 41 40 41 44 46 45 44 43 38 30 30 33 32 32 37 40 40 36 32 32 33 32 30 29 36 47 50 49 49 49 50 51 53 55 57 57 57 59 60 59 58 56 56 56 55 52 50 49 49 51 52 54 55 55 55 56 58 60 61 60 58 58 58 57 57 58 59 59
40 39 37 36 37 37 38 39 39 39 39 40 40 40 41 43 43 43 44 43 42 42 43 44 44 43 41 37 36 36 37 40 41 39 40 39 35 35 35 32 31 31 31 38 44 47 49 51 53 55 56 57 60 61 61 62 63 63 63 64 63 61 59 58 57 57 57 59 58 58 57 56 56 55 54 55 57 57 57 59 59 59 59 60 59 58
42 42 40 39 39 40 41 41 40 40 40 40 40 41 42 43 44 44 44 44 43 42 43 42 43 45 45 42 41 38 35 40 45 41 40 41 40 41 41 38 37 36 31 28 31 38 45 50 54 57 60 61 63 65 66 66 67 66 65 65 65 65 64 63 63 63 62 61 58 58 57 56 56 54 51 51 53 54 56 58 59 59 58 57 55 52
46 47 46 44 43 44 43 41 40 42 43 42 43 43 43 44 45 45 44 44 43 43 45 44 43 45 45 44 45 45 39 39 44 45 43 43 43 43 45 44 40 40 38 31 26 29 37 45 50 55 59 62 63 66 69 70 71 71 70 68 68 67 67 66 65 65 65 61 57 55 55 54 54 53 50 51 52 52 53 55 57 56 55 54 54 53
49 50 49 47 47 48 45 41 41 45 46 46 46 47 46 47 47 46 45 44 43 44 44 45 45 46 45 44 45 48 48 45 45 45 45 46 46 44 45 46 43 41 41 39 34 32 36 41 46 50 56 59 61 63 66 68 70 70 70 69 68 68 67 66 63 61 62 62 60 59 57 55 55 53 51 52 51 49 50 54 56 56 56 55 55 55
50 51 50 50 52 51 47 44 45 47 47 48 49 50 50 49 50 49 46 44 44 45 44 44 46 46 45 45 45 47 50 51 49 46 44 45 49 48 46 47 47 44 44 45 45 44 44 45 47 50 54 57 60 62 63 63 64 66 67 67 67 67 66 64 61 59 59 59 59 59 57 55 53 50 48 48 48 47 50 54 57 56 54 54 55 55
53 54 54 55 54 53 50 48 48 47 47 48 49 51 53 53 53 52 50 47 46 46 44 42 43 46 47 48 48 48 49 51 52 51 48 47 49 51 50 51 53 51 50 50 52 53 53 53 53 54 55 55 58 61 62 63 64 64 65 64 64 63 62 60 58 57 57 56 56 56 54 51 50 49 49 49 49 51 51 51 52 53 51 50 51 53
57 59 60 59 57 55 54 53 50 49 49 48 48 50 53 55 56 56 55 52 50 49 47 42 40 42 44 47 50 50 50 50 52 53 53 52 51 51 52 52 54 56 55 55 57 58 57 56 58 59 59 58 58 60 61 62 62 62 62 61 60 59 59 58 57 57 56 55 54 54 53 53 54 55 57 57 57 57 57 53 51 52 53 53 53 54
61 62 63 62 60 61 60 57 54 53 53 51 49 51 53 55 56 57 57 56 54 54 53 50 46 43 42 44 47 49 50 50 50 53 54 53 53 54 54 55 56 58 59 59 60 60 59 58 58 60 61 61 61 61 61 61 60 60 60 60 59 58 59 59 58 57 56 55 54 54 55 56 58 59 61 62 61 62 63 61 58 57 58 58 58 59
63 64 64 64 65 66 64 61 58 58 57 54 53 54 55 55 55 55 56 56 56 56 57 56 52 49 47 46 46 47 48 48 49 51 52 52 52 55 57 59 60 60 61 62 63 63 62 61 61 61 62 63 63 63 63 64 63 62 63 63 62 60 59 60 59 59 59 59 57 56 55 56 56 56 58 59 60 61 62 63 62 62 62 62 63 64
65 65 65 66 68 68 66 62 59 59 59 58 59 60 59 57 56 56 55 55 56 57 57 57 54 52 51 51 49 48 49 49 48 49 50 51 52 54 57 60 62 63 64 65 65 66 66 66 66 66 65 66 66 66 66 68 67 67 67 67 66 64 63 63 63 62 63 64 63 61 60 60 60 59 60 60 60 62 62 61 61 63 65 67 68 70
65 65 66 68 70 70 68 65 61 60 60 61 62 63 62 60 59 58 57 57 57 57 57 57 56 54 53 54 54 54 52 52 51 50 49 50 52 54 56 58 60 62 64 65 67 68 69 71 71 71 71 70 69 68 69 70 71 71 71 70 67 66 65 65 66 66 66 67 68 67 67 67 67 66 67 67 66 67 68 68 68 69 70 72 74 75
66 66 68 70 71 71 71 68 65 63 62 62 63 64 64 62 61 60 60 60 60 58 57 56 55 55 54 53 56 58 58 57 56 53 51 52 53 56 57 58 59 61 62 64 66 67 70 73 74 74 74 74 74 74 73 73 74 75 74 71 68 66 64 65 67 68 68 69 70 71 71 71 71 71 73 74 75 75 77 78 79 79 79 80 81 82
66 67 69 70 71 72 72 71 68 66 64 63 65 67 66 65 64 64 64 64 62 60 59 58 57 56 54 53 54 56 59 61 61 60 59 58 58 58 59 59 59 60 61 64 66 67 69 71 74 76 76 76 78 79 79 78 78 78 77 74 72 70 69 70 71 72 72 73 74 75 75 76 77 77 78 79 80 82 82 83 84 85 86 87 87 88
66 68 70 71 71 73 73 73 72 70 67 67 68 69 68 67 67 67 66 64 63 61 60 60 59 57 56 55 55 55 57 60 62 64 65 66 66 66 65 63 62 62 63 65 68 70 70 70 72 75 77 77 78 80 81 81 82 82 82 80 80 79 78 77 76 77 79 79 80 80 81 81 81 81 82 82 83 83 84 83 84 85 86 87 88 88
68 70 73 74 75 76 76 76 76 74 71 70 70 70 70 69 69 69 67 64 63 62 61 61 61 60 60 60 59 57 57 58 59 61 64 66 67 68 67 65 66 66 67 68 70 72 73 73 74 76 77 78 79 81 81 82 83 85 86 85 86 85 83 80 78 79 80 81 81 81 81 82 82 82 82 82 83 83 83 83 83 83 84 85 86 86
72 74 76 76 77 79 78 78 77 75 73 72 71 72 72 71 71 71 70 67 64 62 62 63 63 64 64 64 63 60 59 59 59 60 62 63 64 64 64 64 65 67 69 71 72 74 75 76 77 78 79 80 81 82 83 83 84 86 86 86 87 86 85 82 80 79 79 79 80 80 80 80 80 80 79 80 80 80 80 80 80 80 82 83 84 84
74 76 77 77 77 78 78 77 76 75 74 73 73 73 73 73 73 73 73 70 66 64 64 65 66 67 67 67 65 64 63 62 62 62 62 62 62 63 63 64 64 65 67 69 72 74 76 77 78 79 80 81 81 83 84 84 85 86 86 86 87 87 87 86 84 83 82 82 82 82 82 82 81 80 79 79 79 79 79 77 77 77 78 79 80 81
75 77 78 78 78 78 78 76 75 75 75 74 74 74 73 74 74 75 75 74 70 66 65 67 69 70 70 69 68 67 66 65 65 64 64 63 64 64 65 65 65 65 66 67 69 72 74 76 77 78 80 81 82 83 84 84 85 86 86 87 87 88 88 88 88 88 88 88 87 87 86 85 84 83 82 82 81 81 81 80 78 77 78 79 79 80
74 77 79 79 79 78 78 77 76 76 76 75 75 75 74 75 75 75 76 76 74 71 69 69 70 72 72 71 70 69 69 68 68 67 66 66 66 66 66 66 67 67 67 67 68 70 72 73 75 77 78 80 82 83 85 86 87 88 89 90 91 91 91 91 91 91 91 90 90 89 88 88 87 87 86 85 84 83 82 82 80 79 78 78 79 79
71 74 77 79 79 79 79 78 78 77 77 77 76 76 76 77 77 77 78 78 78 77 74 73 72 72 72 72 72 72 72 71 71 70 70 69 69 69 69 69 69 69 70 70 71 71 72 73 74 76 77 79 80 82 83 85 86 88 89 90 91 91 91 91 90 89 89 89 88 89 89 88 88 88 88 88 87 86 86 85 84 83 81 80 78 78
66 69 72 74 76 78 78 78 78 79 79 79 79 79 79 79 79 80 80 80 81 80 79 77 75 74 74 73 74 74 74 74 74 73 73 72 72 72 72 73 73 73 73 73 74 74 74 75 75 76 78 79 80 81 83 84 84 85 86 87 87 88 87 87 87 87 87 87 87 87 88 88 88 88 89 90 90 90 90 90 90 90 89 87 85 84
62 64 66 69 71 73 74 75 76 77 78 80 81 82 82 82 82 82 82 83 83 82 82 80 79 78 77 76 75 75 75 76 76 75 75 74 74 75 75 76 76 76 76 76 77 77 78 78 78 79 80 81 82 82 83 84 85 86 86 86 87 87 87 87 87 88 88 89 89 89 89 89 89 89 90 91 92 92 93 94 94 95 94 93 93 92
58 60 62 64 65 67 69 70 72 73 76 78 81 83 84 84 84 84 84 85 85 85 85 84 82 81 79 78 78 77 77 77 77 76 76 76 76 77 78 78 78 78 78 79 79 80 81 81 82 82 82 83 83 84 85 85 86 87 88 88 89 89 90 90 90 90 91 92 92 92 92 92 92 92 93 94 94 95 96 96 97 97 96 95 95 94
54 57 58 59 60 62 63 65 67 69 71 74 77 80 83 84 85 85 86 86 87 87 87 87 86 84 82 81 80 79 79 79 79 78 77 77 78 79 80 80 80 80 80 81 82 83 83 83 84 84 84 85 85 86 87 88 88 89 90 91 91 92 93 93 94 94 94 95 95 95 94 94 94 94 95 95 95 95 96 96 96 95 95 95 95 95
49 51 53 54 56 58 59 61 64 65 67 69 72 75 77 79 81 83 85 86 87 88 88 88 87 86 85 84 83 82 82 82 82 81 80 79 79 80 81 82 82 82 83 84 85 85 85 85 85 86 87 87 88 88 89 90 90 91 92 93 94 94 95 95 95 95 95 96 95 95 95 94 95 95 95 95 95 96 96 97 97 96 96 97 98 98
Wind_Direction
255 255 252 250 248 247 246 245 244 244 245 245 246 247 247 246 245 244 245 245 243 243 246 245 241 245 249 248 248 250 251 252 252 253 254 252 250 251 253 254 254 254 253 250 246 245 244 240 236 235 238 242 244 248 251 253 255 256 258 259 258 260 264 264 260 256 259 262 264 265 265 268 270 271 268 260 255 257 256 258 262 263 266 271 275 279
254 253 250 248 247 247 246 245 244 244 245 245 245 244 243 242 242 242 243 244 242 240 242 244 241 241 248 248 246 247 248 250 252 253 252 250 249 249 252 254 254 253 250 248 245 242 241 238 234 236 240 243 243 244 247 250 251 253 255 256 258 261 263 264 263 260 261 264 265 264 262 265 269 269 264 259 256 253 250 254 262 267 270 274 278 281
252 250 249 248 248 247 246 245 244 245 244 243 242 240 240 240 240 240 242 243 241 238 239 242 243 241 243 246 245 246 247 248 250 251 249 248 248 249 251 254 253 250 249 247 246 243 240 237 235 237 240 242 242 243 244 246 248 251 253 253 256 259 262 264 264 264 264 265 266 265 263 263 265 266 263 258 253 249 248 254 262 268 271 274 278 280
251 250 250 250 248 247 245 245 244 243 241 240 240 240 239 239 240 240 241 242 241 239 239 241 243 242 241 243 246 246 246 246 248 248 247 247 248 249 250 251 250 249 248 248 247 244 241 238 237 238 239 240 242 244 244 245 248 251 252 254 255 258 262 264 263 264 264 264 266 266 264 263 263 263 264 261 254 249 250 255 261 266 270 274 277 278
252 251 250 249 247 245 243 243 242 240 239 240 240 240 240 239 240 241 243 245 244 241 239 238 240 243 244 244 245 246 243 244 246 246 246 247 249 250 250 249 249 249 248 247 246 244 242 241 238 238 241 242 243 246 247 247 248 249 252 255 256 260 263 263 262 262 264 265 266 266 266 265 263 262 263 263 257 252 253 256 260 265 269 272 274 274
252 250 249 246 244 242 240 239 239 238 238 239 239 239 239 238 239 241 242 245 245 242 240 238 238 242 245 246 244 244 243 242 246 247 247 248 249 251 250 249 248 247 246 245 244 243 243 242 240 238 242 244 244 246 247 247 248 249 251 253 255 260 262 262 261 261 263 265 266 267 268 267 265 263 263 262 260 257 257 259 263 266 268 270 271 273
251 248 247 245 242 240 238 238 238 237 237 237 237 237 238 238 239 240 242 244 244 242 239 238 239 241 244 245 243 243 242 241 245 248 248 248 249 250 250 248 247 246 246 246 246 246 245 244 243 240 242 243 245 246 246 246 248 250 252 253 254 259 260 261 262 260 260 264 265 266 267 268 267 265 263 261 260 260 260 263 266 268 269 270 271 273
249 246 245 242 239 237 237 237 237 237 236 235 235 236 238 238 239 240 242 243 242 241 239 239 239 240 242 244 244 244 242 242 245 248 249 250 250 249 248 247 246 247 247 247 248 248 247 246 245 244 244 244 245 245 244 245 249 252 253 253 254 257 259 261 263 259 260 265 266 266 267 268 268 266 264 262 261 262 264 266 268 269 271 272 272 273
247 244 243 241 238 237 237 237 237 235 235 234 234 236 239 240 241 241 241 241 241 241 240 240 240 240 241 242 244 245 243 244 246 247 249 250 249 249 248 248 247 246 245 245 246 247 247 247 247 246 244 244 244 244 243 245 249 253 254 254 255 257 259 261 262 260 261 265 266 266 268 269 269 268 265 264 263 264 265 266 268 269 269 270 271 272
246 242 242 241 238 238 237 236 235 234 233 234 234 235 238 239 239 239 239 240 240 240 240 240 240 240 240 241 242 243 243 244 246 247 248 248 248 248 248 246 245 245 246 247 247 246 246 246 246 244 243 242 244 244 243 245 249 252 254 255 255 257 259 261 262 261 262 263 263 266 268 269 271 270 268 267 265 265 264 265 266 266 267 268 269 271
244 241 241 239 237 235 234 233 232 232 233 233 233 234 235 236 237 237 237 238 238 239 239 239 239 239 240 240 241 243 244 244 246 246 247 246 246 246 245 245 245 247 250 250 249 247 246 244 243 242 242 243 246 247 247 246 249 252 254 255 256 256 258 260 261 262 261 261 262 264 267 269 271 272 271 270 269 267 266 265 265 265 264 265 267 269
243 241 240 238 236 234 233 231 231 231 231 231 230 232 233 234 236 238 239 239 239 240 240 239 238 238 240 240 241 243 244 245 246 246 246 246 245 245 245 246 247 247 248 246 244 243 243 242 241 241 242 244 248 250 250 249 250 251 252 255 257 256 257 260 261 261 260 260 260 262 265 268 270 271 272 272 271 269 266 265 263 262 262 263 265 269
244 242 241 240 239 237 235 232 231 231 230 229 229 231 232 233 235 237 239 239 238 238 238 239 238 238 239 240 241 243 245 246 245 244 244 245 244 244 244 243 243 243 244 243 240 238 239 241 242 243 244 246 250 252 251 250 250 250 250 253 256 255 256 258 260 261 259 259 260 261 262 265 267 269 269 270 270 268 266 264 262 261 262 263 266 268
242 242 242 241 239 236 232 231 231 231 230 230 230 232 232 233 234 236 237 237 235 235 236 238 238 238 239 241 241 243 245 244 241 237 237 240 240 239 239 238 239 238 239 239 239 240 241 244 246 246 247 249 251 250 250 250 251 251 251 253 254 256 257 258 259 261 260 259 259 260 261 262 264 265 266 267 267 267 266 265 264 264 264 265 266 266
238 239 239 237 236 232 230 230 230 231 231 230 232 232 233 234 234 235 235 235 235 235 237 239 239 240 242 242 241 241 242 241 237 233 231 234 235 234 233 235 235 233 230 231 236 243 244 245 246 247 248 249 248 248 251 253 254 255 256 256 256 258 259 260 260 260 260 260 259 258 259 260 262 263 263 263 264 265 267 267 267 267 266 266 266 266
237 237 237 235 234 231 230 231 231 231 231 231 233 233 233 234 233 234 234 234 234 236 238 240 240 240 241 240 238 238 239 239 238 234 230 229 231 231 230 231 231 230 228 222 224 236 241 242 244 246 247 247 247 250 255 255 255 257 258 258 259 262 264 265 264 263 263 262 260 258 257 258 259 260 261 262 262 264 265 267 267 267 267 266 267 268
237 236 237 236 234 233 232 232 231 231 231 231 232 232 230 231 231 232 233 233 234 235 237 239 238 237 237 234 233 236 238 237 235 233 227 224 227 230 231 231 229 227 226 220 218 228 235 236 238 243 244 243 244 246 250 253 257 260 261 262 264 267 267 267 266 266 265 265 264 261 259 259 259 259 259 260 260 261 261 263 265 265 266 267 268 270
239 237 237 237 234 232 233 232 230 229 230 229 230 231 230 230 231 233 234 235 234 234 236 238 237 237 236 234 233 235 237 236 233 230 226 226 229 233 234 233 229 225 224 222 222 227 231 232 235 239 239 236 232 230 237 248 257 263 263 262 263 264 264 266 267 267 266 265 265 264 262 261 260 260 259 258 258 257 257 261 264 265 266 267 268 270
242 240 237 235 233 232 233 232 230 229 229 229 230 230 230 230 231 232 233 235 235 235 236 237 236 236 235 233 232 233 235 235 234 231 230 231 233 234 234 233 230 225 222 222 224 227 230 232 236 239 235 228 223 226 236 243 254 265 265 257 256 257 259 264 268 270 269 267 265 263 263 262 260 258 258 258 258 258 259 262 265 267 268 268 269 270
242 241 238 235 232 231 232 231 230 229 229 229 229 230 230 230 230 229 229 231 234 235 236 237 236 235 235 234 233 235 235 234 233 233 233 233 233 233 233 232 230 225 221 220 222 224 227 231 237 239 232 225 225 231 239 242 254 266 265 258 255 259 262 266 269 270 268 268 266 263 262 262 261 259 259 259 260 261 262 264 266 267 268 269 270 271
240 240 240 237 233 232 231 230 229 228 228 229 229 228 229 229 229 229 228 228 231 233 235 237 237 236 234 235 240 242 240 237 236 234 233 232 232 231 230 230 230 228 225 223 222 222 225 229 234 233 229 227 226 229 237 248 254 260 263 262 261 262 264 266 266 264 262 264 267 263 261 262 262 261 261 261 261 262 263 265 267 267 268 269 270 272
240 241 242 239 236 235 233 232 231 230 230 232 231 230 230 229 228 228 228 227 228 230 232 234 237 237 231 226 237 250 248 242 238 235 231 229 228 226 223 224 226 228 228 228 225 222 223 227 230 229 228 227 222 223 235 248 245 250 261 266 266 264 264 263 262 259 256 259 262 259 258 259 260 261 262 261 261 262 262 264 267 268 268 270 271 273
236 237 241 239 237 238 236 235 236 234 232 235 236 235 235 234 231 229 230 231 231 232 233 233 235 238 233 220 221 247 254 248 242 237 233 228 224 221 221 225 229 230 230 231 230 228 226 227 230 230 229 227 221 220 226 229 230 242 254 256 254 255 258 259 259 258 256 258 257 253 253 255 257 259 260 261 261 261 262 264 266 268 269 269 270 270
234 231 237 240 238 238 237 236 235 234 232 234 236 237 239 241 239 234 233 234 236 235 235 235 234 235 233 221 212 229 247 251 247 241 235 230 224 220 221 227 233 234 234 234 235 235 232 231 233 232 230 228 224 222 221 223 231 242 247 247 247 251 254 254 256 259 258 257 254 252 255 257 258 259 260 260 261 261 262 264 265 267 267 267 267 268
240 230 231 237 238 236 236 234 233 234 233 233 235 235 235 239 240 237 234 233 236 239 240 240 238 236 232 221 214 222 233 245 245 240 236 233 228 223 221 223 227 233 237 235 233 233 232 232 234 233 231 229 228 227 225 226 231 238 243 246 248 251 252 251 252 254 254 254 255 257 260 261 261 262 261 261 262 262 263 263 263 263 264 264 264 265
241 235 231 235 237 235 237 237 235 234 234 234 236 235 234 236 238 238 235 232 233 237 241 242 242 241 234 221 218 221 224 232 237 235 234 235 233 227 223 220 220 226 237 240 236 233 231 231 232 234 233 232 232 232 231 230 231 235 240 244 247 251 252 251 251 252 253 256 258 259 261 262 263 264 263 263 263 263 262 261 260 260 261 262 264 266
239 239 235 234 236 235 237 239 237 235 235 236 236 236 235 235 237 237 237 235 232 233 237 239 240 241 237 227 222 222 223 229 233 231 228 229 229 226 220 216 216 218 229 242 243 240 237 235 234 236 236 236 237 238 238 237 237 240 243 245 248 251 253 252 253 256 258 261 262 262 261 262 263 264 265 265 265 263 262 260 259 259 261 263 266 268
235 236 234 233 235 236 235 236 238 238 237 236 237 237 237 237 237 237 237 237 235 233 233 234 235 237 238 234 228 226 227 231 234 232 226 222 224 225 219 216 220 221 222 233 243 245 244 242 239 240 240 240 241 242 243 244 244 245 247 249 250 252 253 254 256 258 261 264 265 264 262 261 259 261 264 265 264 263 263 263 262 262 263 264 265 266
231 232 232 232 234 236 235 235 237 238 236 234 235 236 238 240 241 240 239 237 236 235 234 233 232 234 236 236 232 229 226 228 232 233 228 222 223 224 219 215 220 225 223 223 233 243 245 244 243 243 243 243 243 244 244 245 246 247 249 251 252 253 253 254 256 258 261 262 261 260 260 259 258 257 257 259 261 263 264 263 262 262 263 263 264 263
230 231 233 233 235 237 237 234 234 236 235 234 233 234 236 239 242 243 242 240 238 238 236 235 234 234 233 234 233 231 227 226 229 230 228 224 222 222 220 217 220 224 223 221 227 239 243 242 243 244 243 244 245 246 245 244 246 248 249 250 252 252 254 255 257 259 260 259 259 259 260 260 259 256 254 254 257 260 261 260 259 259 260 260 261 262
227 231 233 234 236 239 239 235 234 236 236 235 234 235 236 237 239 242 243 242 241 241 240 239 238 237 235 232 232 231 229 229 229 227 226 224 221 221 221 220 222 225 223 220 226 236 241 241 242 244 245 246 247 247 247 247 249 251 252 253 254 255 257 259 259 260 260 259 259 260 261 259 256 252 250 251 252 254 257 259 259 259 260 259 260 261
224 228 231 234 237 239 239 238 237 237 237 236 235 235 237 238 238 239 241 241 241 241 243 242 241 240 239 236 234 233 232 232 230 229 228 227 225 225 225 225 225 226 226 223 225 233 239 242 244 245 246 248 250 251 251 252 253 254 255 256 257 258 258 258 257 258 259 260 260 260 259 255 248 244 247 250 249 250 254 257 258 258 257 257 257 258
225 227 231 234 236 237 237 237 236 236 236 236 236 236 237 238 238 239 240 241 241 240 239 236 235 237 239 239 238 237 237 236 234 233 233 232 231 229 227 226 225 225 227 227 229 233 239 243 246 246 245 247 250 252 253 254 254 255 255 256 256 257 257 256 257 258 258 257 256 256 255 252 247 246 250 252 252 251 251 251 253 254 254 255 256 256
228 229 232 234 235 236 236 235 234 234 234 236 237 237 236 237 238 238 239 241 241 241 240 237 234 235 237 238 238 238 238 238 237 236 235 234 234 232 228 226 225 225 228 231 232 235 239 242 246 248 247 247 248 250 251 252 252 253 253 254 254 254 255 255 255 255 253 251 251 252 254 254 254 253 255 255 255 255 254 252 252 252 254 256 256 256
230 231 232 233 234 235 237 235 234 234 234 235 237 237 237 237 238 238 239 239 239 240 242 243 240 235 234 236 237 238 237 237 237 238 237 235 235 234 230 228 229 230 232 232 234 236 238 241 245 247 248 249 249 249 250 250 249 250 251 252 252 252 253 253 253 251 249 248 248 249 253 255 255 255 255 256 256 256 256 256 255 253 254 256 258 259
230 231 232 234 235 237 239 239 237 235 235 235 235 236 237 238 239 240 240 241 240 239 240 243 243 239 234 233 235 237 239 239 238 239 239 237 236 236 234 232 232 234 237 237 238 238 238 240 243 245 246 248 249 250 250 250 250 251 251 252 252 252 253 254 253 252 250 248 247 247 250 253 255 255 255 255 256 256 256 256 255 255 257 259 261 264
230 231 232 234 236 239 241 242 240 239 238 237 238 239 239 239 240 242 243 244 245 244 242 242 243 243 238 235 233 235 238 240 240 240 239 237 236 237 239 238 237 237 239 241 242 242 242 242 242 243 244 246 248 250 251 252 252 253 253 253 253 253 254 255 255 253 252 251 250 249 250 253 255 256 255 254 254 254 256 256 256 257 258 259 262 264
229 230 232 234 236 239 242 243 242 241 241 241 242 243 242 241 241 242 243 244 246 247 248 246 245 245 242 238 236 235 237 239 240 240 238 238 237 237 238 240 240 239 240 243 243 243 244 245 244 245 246 247 248 250 251 251 252 253 254 254 253 253 254 256 256 255 254 254 254 253 253 254 255 256 255 255 254 255 256 256 257 257 258 259 260 261
229 230 232 234 236 239 242 244 244 243 243 243 244 245 244 243 242 242 242 243 244 246 248 250 250 249 248 244 241 238 238 239 240 240 240 240 240 239 237 238 240 240 240 242 244 245 246 247 246 246 247 249 251 251 251 252 252 253 253 254 254 256 259 260 259 257 257 258 258 257 257 257 258 258 258 257 257 257 257 257 258 258 259 259 260 261
229 230 232 234 235 237 239 241 243 244 243 243 243 245 246 245 244 243 243 244 245 246 248 250 252 253 253 251 248 244 242 241 240 241 242 243 244 243 241 240 240 241 241 242 244 246 247 248 249 249 249 251 254 255 255 255 256 257 257 257 258 260 262 262 261 259 260 261 261 260 260 260 260 260 260 259 258 258 258 259 259 260 260 260 261 261
230 230 231 232 234 235 236 237 240 241 242 242 243 244 246 246 246 246 245 244 246 247 248 249 251 252 253 253 252 250 248 246 245 245 245 245 246 246 246 245 243 243 242 242 244 247 248 249 251 253 254 256 257 259 260 262 263 264 264 264 265 265 264 262 261 261 261 262 263 262 262 262 262 261 260 259 259 258 258 259 259 260 261 261 261 261
232 232 233 233 234 236 237 238 239 241 242 243 243 244 245 246 247 248 248 245 244 245 247 248 249 250 251 252 252 252 251 251 250 250 249 249 249 250 249 248 246 245 244 243 244 246 248 249 251 253 255 256 258 259 261 262 264 265 267 267 268 268 268 268 267 266 266 266 266 266 266 265 264 264 263 263 262 261 260 259 259 260 261 261 262 262
233 235 236 236 237 239 240 241 242 243 244 245 245 245 246 247 248 250 251 249 246 244 245 247 248 248 249 249 251 252 252 252 252 253 253 253 253 253 252 251 250 248 246 245 245 246 247 249 250 252 253 255 257 258 260 261 263 264 265 266 268 269 270 271 271 271 271 271 271 271 271 270 269 269 268 268 267 266 265 263 261 261 261 261 262 262
235 236 238 239 239 240 242 243 244 245 247 248 248 249 249 249 250 251 253 254 252 249 246 246 248 249 250 250 251 251 252 252 252 253 253 254 254 254 254 253 253 251 250 248 247 247 247 248 249 250 251 253 254 256 257 259 260 261 262 263 265 266 267 269 270 271 272 273 273 273 272 272 272 272 271 270 269 269 268 267 265 263 262 261 262 262
237 238 239 241 241 242 242 243 244 245 247 248 249 250 251 252 252 253 254 256 256 255 252 249 248 249 251 252 253 252 252 252 252 252 252 252 253 253 253 254 254 254 253 252 251 250 250 250 250 251 251 251 252 253 254 255 256 257 258 260 261 263 264 266 267 268 269 270 271 272 273 273 274 274 274 273 272 272 271 270 269 267 265 263 262 262
238 239 240 241 242 243 244 244 244 244 246 247 248 249 250 251 252 253 254 255 256 257 256 254 253 252 252 252 253 254 254 253 253 253 252 252 252 253 253 253 254 254 254 254 254 253 253 253 253 253 253 253 253 254 254 255 255 256 257 258 259 261 262 263 264 265 266 267 269 270 272 274 275 275 276 277 277 277 277 277 276 275 273 271 269 266
240 240 241 243 244 245 245 245 245 245 246 247 247 248 249 250 250 252 253 254 255 255 256 256 256 255 254 253 253 253 254 254 254 254 254 254 253 253 253 253 254 254 254 255 255 255 255 255 255 256 256 256 257 257 258 258 259 259 260 260 261 262 263 264 265 266 267 267 268 269 270 272 273 274 276 277 278 278 279 279 280 280 279 279 278 276
241 242 242 243 244 245 246 247 247 247 247 247 248 248 249 249 250 251 252 253 254 255 256 256 255 255 255 255 254 254 254 254 255 255 256 256 255 255 255 254 255 255 255 256 256 257 257 257 257 257 257 258 258 259 260 261 262 263 263 264 265 266 266 266 267 267 268 268 268 269 269 270 271 272 272 273 274 275 276 276 277 277 278 278 278 278
242 243 243 243 244 245 246 247 247 247 247 247 248 248 249 249 250 251 252 253 254 256 256 257 257 257 256 256 256 256 255 255 255 255 256 256 257 257 257 257 257 257 257 257 258 258 259 259 259 259 260 260 261 261 262 263 263 264 265 265 266 266 267 267 267 267 268 268 268 268 269 269 269 270 270 270 270 271 271 272 273 274 275 275 276 277
242 243 244 245 245 246 246 247 247 247 247 247 247 247 248 248 249 250 251 252 254 255 256 257 258 259 259 259 258 259 259 258 258 257 257 256 257 258 258 259 260 260 260 259 259 259 259 260 260 261 261 262 262 262 263 263 264 264 265 265 265 266 266 266 267 267 267 267 268 268 268 269 269 269 269 269 270 271 271 272 273 274 276 277 278 278
243 244 245 246 246 246 246 246 247 247 247 247 247 248 248 248 249 249 250 251 253 254 255 257 258 259 260 260 260 259 259 259 259 259 259 258 258 258 258 259 260 260 260 261 261 261 261 262 262 262 263 263 263 263 263 263 264 264 265 265 266 266 267 267 268 268 269 269 270 270 271 272 272 272 273 273 274 274 275 276 276 277 278 278 278 277
Height
10563 10565 10567 10567 10568 10571 10574 10578 10580 10579 10582 10589 10595 10598 10601 10605 10607 10608 10605 10607 10618 10624 10622 10629 10639 10632 10627 10639 10643 10644 10650 10655 10658 10658 10663 10668 10666 10663 10663 10669 10679 10683 10686 10687 10685 10685 10686 10690 10690 10687 10684 10685 10693 10698 10700 10701 10701 10701 10701 10700 10701 10700 10700 10701 10703 10703 10704 10705 10705 10705 10704 10703 10702 10702 10701 10702 10701 10699 10698 10698 10698 10699 10700 10701 10701 10701
10558 10557 10558 10559 10562 10566 10569 10572 10573 10574 10580 10586 10590 10591 10593 10596 10598 10599 10597 10600 10610 10618 10617 10620 10630 10629 10624 10632 10637 10640 10647 10651 10652 10653 10657 10659 10657 10657 10660 10668 10676 10677 10678 10678 10677 10678 10681 10683 10683 10680 10679 10683 10689 10692 10694 10695 10696 10696 10696 10696 10696 10695 10695 10697 10699 10699 10700 10700 10700 10700 10701 10701 10700 10700 10699 10698 10698 10698 10697 10696 10696 10696 10697 10697 10697 10697
10550 10550 10551 10554 10558 10562 10564 10567 10568 10571 10577 10580 10581 10583 10585 10588 10591 10591 10590 10593 10602 10610 10613 10616 10622 10624 10621 10624 10630 10638 10645 10646 10646 10646 10647 10649 10649 10653 10661 10666 10670 10671 10670 10669 10670 10672 10675 10677 10677 10676 10677 10680 10682 10684 10687 10689 10690 10691 10691 10691 10692 10692 10693 10695 10696 10696 10697 10696 10696 10696 10697 10697 10697 10697 10696 10696 10696 10696 10695 10694 10693 10693 10693 10693 10693 10693
10543 10544 10548 10551 10554 10557 10559 10561 10563 10567 10570 10571 10574 10576 10580 10583 10583 10583 10583 10586 10596 10605 10611 10615 10615 10615 10615 10619 10627 10636 10640 10641 10640 10638 10638 10641 10645 10652 10659 10662 10663 10665 10664 10663 10665 10666 10668 10670 10672 10674 10675 10674 10675 10677 10680 10683 10685 10686 10686 10687 10688 10690 10691 10692 10693 10693 10692 10692 10691 10692 10692 10692 10692 10692 10693 10693 10693 10692 10691 10690 10690 10689 10689 10690 10690 10690
10538 10541 10545 10547 10549 10552 10554 10555 10557 10560 10563 10566 10570 10572 10575 10577 10576 10578 10580 10582 10592 10602 10608 10611 10609 10607 10609 10617 10627 10629 10633 10636 10632 10628 10631 10637 10643 10650 10655 10658 10659 10660 10659 10658 10659 10659 10660 10663 10668 10670 10669 10669 10669 10672 10675 10678 10679 10680 10681 10682 10684 10685 10687 10688 10688 10688 10687 10687 10687 10687 10686 10686 10687 10688 10688 10688 10688 10688 10687 10687 10686 10686 10686 10686 10686 10687
10534 10538 10540 10541 10544 10547 10548 10549 10550 10555 10559 10562 10565 10566 10568 10570 10571 10574 10576 10579 10588 10597 10602 10604 10604 10604 10605 10615 10622 10621 10627 10631 10623 10620 10627 10635 10642 10646 10651 10654 10654 10654 10653 10651 10651 10652 10655 10659 10663 10664 10663 10664 10666 10668 10671 10671 10673 10674 10676 10677 10678 10679 10681 10683 10683 10682 10682 10682 10682 10681 10681 10681 10682 10683 10683 10684 10684 10684 10684 10683 10683 10682 10682 10682 10683 10683
10530 10534 10535 10536 10540 10541 10542 10543 10546 10551 10555 10558 10559 10560 10561 10564 10566 10569 10573 10577 10583 10589 10595 10597 10599 10601 10604 10610 10613 10614 10622 10623 10616 10616 10625 10634 10640 10642 10644 10646 10646 10647 10647 10646 10647 10650 10652 10654 10656 10657 10659 10662 10663 10665 10665 10666 10667 10669 10671 10673 10673 10674 10676 10677 10677 10677 10678 10678 10678 10678 10678 10678 10678 10678 10679 10679 10679 10679 10679 10679 10679 10678 10678 10678 10679 10680
10526 10530 10530 10532 10535 10535 10536 10539 10543 10547 10550 10552 10553 10554 10556 10559 10563 10566 10570 10573 10577 10582 10587 10590 10594 10598 10601 10604 10605 10609 10615 10614 10612 10616 10624 10631 10635 10635 10636 10637 10640 10642 10642 10642 10644 10646 10648 10648 10649 10651 10656 10659 10659 10660 10661 10661 10663 10665 10666 10668 10668 10669 10671 10672 10673 10673 10674 10675 10676 10675 10675 10675 10674 10675 10675 10675 10675 10675 10675 10675 10674 10674 10673 10674 10675 10676
10522 10525 10525 10527 10529 10530 10532 10536 10540 10543 10545 10546 10549 10551 10553 10557 10560 10563 10566 10568 10572 10577 10581 10585 10589 10593 10596 10597 10599 10603 10607 10608 10609 10615 10622 10627 10628 10627 10628 10630 10634 10636 10635 10637 10639 10641 10642 10642 10644 10647 10652 10655 10654 10655 10657 10658 10659 10660 10662 10662 10663 10664 10665 10667 10668 10669 10670 10671 10672 10671 10670 10671 10671 10671 10671 10671 10670 10670 10671 10670 10669 10670 10670 10670 10671 10672
10518 10520 10520 10522 10525 10526 10529 10533 10536 10539 10539 10541 10546 10548 10549 10553 10555 10557 10561 10564 10568 10573 10577 10580 10584 10587 10589 10592 10594 10597 10600 10602 10606 10613 10619 10621 10620 10621 10621 10624 10627 10628 10630 10633 10634 10635 10637 10637 10638 10642 10647 10650 10650 10651 10653 10655 10656 10656 10657 10659 10659 10660 10661 10662 10664 10664 10665 10666 10666 10666 10666 10667 10666 10666 10666 10666 10666 10665 10665 10665 10665 10665 10666 10666 10666 10668
10514 10516 10516 10518 10520 10522 10525 10529 10532 10533 10535 10539 10543 10543 10545 10548 10549 10552 10556 10559 10564 10569 10572 10576 10579 10581 10583 10586 10588 10591 10595 10598 10602 10610 10615 10614 10614 10615 10616 10617 10620 10624 10628 10630 10630 10631 10632 10632 10634 10638 10643 10646 10646 10648 10650 10651 10652 10653 10654 10655 10656 10656 10656 10658 10659 10660 10661 10661 10661 10661 10661 10662 10661 10661 10661 10660 10660 10659 10659 10659 10660 10661 10661 10662 10662 10663
10509 10512 10512 10513 10515 10518 10522 10525 10527 10529 10531 10535 10537 10538 10541 10543 10545 10549 10552 10557 10563 10565 10567 10569 10572 10576 10578 10580 10584 10588 10591 10594 10600 10607 10609 10608 10608 10609 10611 10613 10617 10621 10625 10626 10627 10628 10629 10628 10630 10635 10640 10641 10643 10645 10646 10647 10648 10649 10650 10651 10651 10652 10652 10653 10655 10655 10655 10655 10656 10656 10656 10656 10655 10655 10655 10654 10654 10654 10654 10654 10655 10656 10657 10657 10658 10658
10506 10507 10507 10509 10512 10516 10519 10521 10523 10524 10527 10531 10532 10533 10536 10539 10543 10546 10549 10555 10559 10560 10561 10563 10566 10571 10573 10576 10582 10585 10588 10592 10598 10603 10603 10603 10604 10604 10606 10609 10613 10618 10621 10623 10624 10624 10625 10625 10627 10631 10635 10637 10639 10641 10642 10643 10643 10644 10645 10646 10646 10647 10647 10648 10649 10649 10649 10649 10650 10651 10651 10650 10650 10649 10649 10649 10649 10649 10649 10650 10650 10651 10652 10653 10653 10654
10501 10502 10504 10506 10509 10513 10515 10516 10518 10520 10523 10526 10527 10529 10533 10536 10540 10543 10546 10550 10553 10554 10555 10557 10561 10566 10569 10574 10581 10583 10585 10589 10594 10598 10599 10599 10599 10599 10600 10603 10609 10615 10618 10619 10619 10620 10621 10622 10623 10626 10629 10632 10635 10636 10637 10638 10638 10639 10640 10640 10640 10640 10642 10643 10643 10643 10643 10643 10644 10645 10646 10646 10646 10645 10644 10644 10645 10645 10645 10645 10646 10647 10648 10648 10648 10649
10497 10497 10499 10501 10504 10508 10509 10510 10513 10515 10519 10522 10523 10526 10530 10533 10537 10539 10542 10545 10547 10550 10551 10553 10558 10563 10567 10574 10579 10579 10580 10584 10587 10592 10594 10594 10594 10594 10595 10599 10605 10610 10613 10615 10616 10616 10616 10615 10617 10620 10624 10627 10629 10631 10633 10634 10634 10635 10635 10634 10633 10634 10637 10639 10639 10638 10638 10638 10639 10640 10641 10641 10641 10641 10640 10639 10640 10641 10640 10641 10642 10643 10643 10643 10643 10644
10492 10493 10495 10497 10500 10503 10504 10506 10509 10512 10516 10518 10520 10524 10527 10530 10533 10535 10537 10540 10543 10546 10547 10550 10556 10560 10564 10570 10574 10574 10575 10578 10582 10585 10589 10590 10590 10590 10592 10595 10600 10604 10607 10609 10609 10607 10605 10608 10612 10615 10618 10622 10625 10628 10629 10630 10630 10630 10629 10627 10627 10630 10634 10635 10634 10634 10634 10633 10633 10635 10636 10636 10637 10636 10636 10635 10636 10636 10636 10636 10637 10637 10638 10638 10638 10638
10488 10490 10491 10494 10497 10499 10500 10503 10506 10509 10511 10514 10516 10520 10522 10524 10527 10529 10532 10536 10540 10543 10544 10546 10552 10555 10558 10563 10567 10569 10571 10574 10576 10580 10583 10585 10586 10586 10588 10592 10595 10599 10601 10602 10601 10597 10598 10604 10608 10610 10613 10617 10622 10624 10623 10623 10624 10625 10624 10624 10625 10628 10629 10630 10630 10629 10629 10627 10627 10628 10630 10631 10631 10632 10632 10632 10632 10632 10632 10631 10632 10632 10632 10632 10632 10632
10484 10486 10488 10491 10494 10495 10496 10499 10502 10504 10507 10509 10511 10514 10517 10519 10522 10525 10529 10532 10536 10539 10540 10542 10547 10550 10552 10558 10564 10566 10567 10569 10572 10575 10578 10581 10582 10583 10585 10588 10591 10594 10596 10597 10597 10596 10597 10601 10604 10606 10609 10613 10618 10616 10613 10615 10620 10620 10621 10622 10623 10624 10623 10624 10625 10623 10623 10622 10622 10622 10623 10625 10626 10626 10627 10627 10627 10627 10627 10627 10627 10627 10627 10627 10627 10627
10481 10483 10485 10487 10489 10491 10492 10495 10498 10500 10502 10504 10506 10509 10512 10514 10517 10522 10526 10528 10531 10534 10535 10538 10541 10544 10548 10555 10560 10562 10563 10566 10569 10571 10573 10576 10578 10580 10581 10584 10587 10590 10592 10593 10594 10594 10596 10598 10600 10602 10605 10610 10613 10611 10608 10612 10616 10616 10617 10618 10618 10618 10618 10618 10618 10618 10618 10618 10617 10617 10618 10619 10620 10620 10621 10622 10622 10622 10622 10622 10622 10622 10623 10622 10622 10622
10478 10480 10481 10483 10485 10487 10488 10491 10493 10495 10497 10499 10501 10504 10506 10509 10513 10517 10520 10522 10525 10528 10531 10533 10536 10539 10545 10552 10557 10558 10559 10562 10565 10567 10569 10572 10574 10576 10578 10580 10583 10585 10587 10589 10590 10591 10592 10594 10596 10598 10601 10605 10608 10608 10608 10609 10611 10612 10613 10613 10613 10613 10612 10611 10611 10612 10613 10614 10613 10613 10613 10614 10614 10614 10615 10615 10616 10616 10616 10616 10616 10617 10618 10617 10617 10616
10474 10477 10478 10479 10481 10482 10484 10486 10487 10490 10491 10493 10496 10498 10501 10504 10507 10511 10514 10518 10520 10523 10526 10528 10531 10535 10542 10549 10554 10555 10556 10560 10562 10564 10566 10568 10570 10572 10574 10576 10578 10581 10583 10584 10585 10587 10588 10590 10592 10594 10597 10600 10602 10603 10604 10605 10608 10609 10606 10605 10606 10605 10604 10604 10604 10606 10608 10609 10609 10609 10609 10609 10608 10608 10608 10608 10609 10610 10610 10610 10611 10612 10613 10611 10611 10610
10472 10474 10474 10476 10478 10479 10480 10481 10483 10486 10488 10489 10491 10493 10495 10498 10502 10506 10510 10513 10515 10517 10520 10523 10526 10532 10540 10547 10552 10554 10554 10556 10559 10560 10562 10563 10565 10567 10569 10571 10573 10576 10578 10579 10580 10582 10584 10585 10588 10590 10593 10595 10597 10599 10601 10603 10606 10606 10601 10599 10599 10598 10597 10597 10598 10601 10603 10603 10604 10604 10604 10603 10602 10603 10602 10602 10603 10605 10605 10605 10605 10606 10606 10605 10604 10603
10469 10470 10470 10472 10474 10475 10477 10479 10480 10483 10486 10486 10488 10490 10493 10496 10500 10504 10507 10509 10511 10513 10515 10519 10523 10529 10538 10546 10552 10554 10553 10552 10553 10555 10557 10559 10561 10563 10567 10569 10571 10571 10572 10574 10575 10577 10579 10580 10582 10585 10588 10590 10592 10594 10597 10599 10602 10602 10598 10596 10595 10593 10592 10591 10592 10596 10598 10599 10599 10598 10597 10596 10596 10598 10597 10596 10597 10598 10598 10599 10599 10600 10600 10599 10597 10597
10464 10466 10466 10467 10470 10472 10474 10476 10477 10479 10481 10482 10484 10488 10492 10494 10498 10503 10506 10507 10508 10509 10511 10515 10520 10526 10535 10544 10549 10551 10551 10549 10548 10549 10551 10554 10557 10561 10566 10570 10571 10571 10570 10570 10570 10572 10574 10575 10577 10580 10582 10584 10586 10588 10590 10592 10595 10595 10594 10593 10591 10591 10590 10587 10587 10589 10592 10592 10592 10590 10589 10590 10591 10592 10591 10589 10589 10592 10593 10594 10594 10594 10593 10593 10592 10591
10457 10461 10462 10463 10466 10469 10470 10471 10473 10475 10477 10478 10480 10484 10488 10489 10492 10496 10501 10504 10505 10505 10507 10511 10516 10521 10531 10541 10545 10546 10546 10544 10543 10544 10546 10548 10552 10556 10561 10565 10567 10569 10567 10565 10565 10567 10569 10571 10572 10574 10576 10578 10579 10581 10582 10585 10586 10587 10587 10588 10588 10588 10587 10585 10583 10584 10584 10584 10585 10584 10583 10585 10585 10584 10583 10580 10582 10587 10589 10588 10589 10588 10587 10586 10585 10584
10451 10455 10458 10459 10462 10465 10465 10466 10469 10471 10473 10474 10476 10480 10482 10484 10486 10489 10493 10497 10499 10501 10503 10507 10511 10517 10525 10533 10537 10539 10540 10538 10537 10538 10540 10542 10545 10549 10552 10555 10557 10560 10559 10557 10558 10562 10565 10567 10568 10569 10570 10572 10572 10574 10576 10578 10579 10580 10580 10582 10582 10582 10582 10582 10581 10580 10579 10578 10580 10580 10579 10580 10579 10577 10576 10574 10575 10579 10581 10581 10580 10581 10580 10579 10578 10578
10446 10449 10454 10455 10457 10460 10461 10462 10465 10467 10469 10471 10472 10475 10477 10478 10481 10483 10487 10490 10493 10496 10498 10502 10507 10511 10517 10523 10526 10529 10532 10532 10532 10534 10536 10538 10540 10542 10545 10547 10547 10548 10549 10549 10552 10557 10560 10561 10562 10563 10564 10565 10565 10566 10568 10570 10572 10573 10574 10575 10575 10575 10576 10576 10576 10575 10574 10573 10574 10574 10575 10575 10574 10571 10571 10569 10569 10571 10572 10571 10571 10572 10573 10572 10571 10572
10442 10443 10447 10450 10452 10454 10455 10457 10460 10463 10465 10466 10468 10469 10471 10473 10475 10478 10481 10484 10487 10490 10492 10496 10501 10504 10509 10514 10518 10521 10524 10526 10527 10529 10531 10533 10533 10534 10537 10540 10540 10541 10543 10545 10547 10550 10551 10552 10555 10556 10556 10557 10557 10558 10558 10560 10562 10564 10565 10566 10567 10567 10568 10570 10570 10570 10570 10569 10566 10566 10568 10569 10569 10568 10567 10563 10561 10562 10562 10562 10562 10563 10564 10564 10564 10565
10437 10438 10441 10444 10446 10447 10449 10455 10458 10458 10459 10461 10463 10464 10466 10468 10469 10472 10475 10478 10481 10483 10486 10490 10495 10498 10502 10506 10511 10514 10516 10518 10519 10521 10523 10526 10527 10527 10530 10533 10534 10536 10539 10541 10542 10542 10541 10542 10545 10546 10546 10548 10548 10548 10549 10550 10552 10554 10556 10558 10559 10560 10561 10563 10565 10565 10564 10563 10560 10559 10562 10563 10563 10563 10562 10556 10554 10555 10555 10553 10553 10554 10555 10556 10557 10558
10431 10433 10436 10439 10440 10440 10445 10451 10452 10451 10452 10456 10457 10459 10461 10463 10464 10466 10469 10473 10475 10477 10481 10485 10488 10492 10496 10499 10502 10506 10508 10510 10512 10513 10516 10519 10520 10522 10525 10528 10530 10531 10534 10536 10536 10534 10532 10533 10535 10536 10536 10538 10538 10538 10540 10542 10544 10546 10548 10550 10551 10552 10553 10556 10559 10558 10557 10556 10554 10552 10555 10556 10556 10555 10554 10550 10548 10549 10548 10545 10544 10547 10548 10549 10550 10551
10426 10428 10431 10433 10433 10434 10440 10445 10445 10444 10447 10450 10452 10453 10455 10457 10459 10460 10464 10467 10469 10472 10476 10480 10483 10486 10490 10493 10495 10498 10500 10502 10505 10508 10511 10514 10515 10518 10520 10523 10525 10527 10529 10530 10529 10527 10525 10525 10526 10528 10529 10530 10530 10531 10533 10535 10537 10538 10540 10541 10543 10544 10545 10547 10549 10549 10548 10548 10547 10546 10547 10548 10548 10547 10546 10544 10544 10543 10541 10539 10538 10540 10542 10542 10543 10543
10420 10421 10423 10424 10426 10430 10434 10436 10438 10439 10441 10443 10446 10448 10450 10451 10453 10454 10457 10461 10464 10467 10472 10477 10478 10480 10483 10487 10489 10491 10494 10496 10499 10503 10506 10509 10511 10513 10515 10517 10519 10521 10522 10523 10522 10520 10519 10518 10519 10521 10523 10524 10524 10524 10526 10527 10528 10530 10531 10533 10534 10535 10536 10538 10539 10540 10541 10541 10541 10540 10540 10541 10540 10539 10538 10538 10538 10537 10536 10534 10532 10533 10534 10534 10535 10536
10412 10412 10414 10417 10421 10423 10424 10427 10430 10433 10434 10437 10440 10443 10443 10444 10446 10448 10451 10454 10458 10462 10466 10470 10472 10473 10476 10479 10482 10485 10488 10491 10494 10497 10499 10502 10505 10508 10509 10510 10512 10513 10514 10514 10514 10513 10513 10513 10513 10515 10517 10518 10517 10517 10517 10518 10520 10521 10523 10524 10526 10527 10528 10530 10531 10533 10534 10534 10534 10534 10533 10533 10533 10533 10531 10531 10530 10530 10530 10529 10527 10525 10526 10527 10528 10529
10405 10405 10408 10411 10413 10413 10414 10419 10423 10425 10427 10430 10433 10435 10436 10437 10439 10442 10445 10448 10452 10455 10458 10462 10465 10468 10470 10471 10474 10477 10481 10484 10487 10489 10492 10497 10499 10501 10502 10503 10504 10505 10506 10506 10506 10506 10507 10506 10506 10507 10509 10510 10510 10510 10509 10510 10511 10513 10514 10516 10518 10520 10521 10523 10525 10526 10526 10526 10526 10527 10526 10525 10524 10523 10522 10522 10522 10522 10522 10523 10522 10521 10521 10522 10523 10523
10397 10399 10401 10403 10403 10403 10406 10411 10415 10416 10420 10424 10426 10426 10428 10430 10433 10436 10439 10442 10445 10448 10450 10453 10457 10461 10463 10464 10467 10470 10473 10477 10480 10482 10486 10491 10493 10493 10494 10496 10497 10498 10498 10499 10499 10499 10500 10500 10499 10500 10501 10501 10501 10502 10502 10501 10503 10505 10506 10508 10511 10513 10514 10516 10517 10518 10518 10517 10518 10519 10519 10517 10515 10513 10511 10512 10514 10514 10514 10516 10517 10517 10516 10516 10516 10516
10390 10392 10394 10395 10395 10396 10399 10404 10408 10410 10413 10417 10417 10417 10420 10424 10426 10429 10432 10435 10438 10441 10444 10446 10449 10453 10457 10459 10462 10464 10466 10470 10473 10476 10479 10483 10485 10486 10487 10489 10491 10492 10492 10492 10492 10492 10492 10492 10492 10491 10491 10491 10492 10493 10493 10493 10494 10497 10498 10500 10503 10505 10507 10509 10509 10509 10509 10509 10510 10512 10513 10512 10510 10508 10506 10506 10507 10508 10508 10509 10510 10510 10509 10509 10509 10508
10383 10387 10389 10388 10388 10390 10393 10397 10401 10404 10408 10410 10410 10411 10414 10418 10420 10424 10427 10429 10431 10434 10438 10441 10443 10446 10449 10453 10455 10457 10460 10463 10466 10469 10472 10475 10478 10479 10479 10481 10483 10484 10485 10485 10485 10485 10484 10484 10483 10482 10482 10483 10484 10485 10485 10485 10486 10487 10489 10491 10495 10497 10499 10500 10500 10500 10502 10502 10503 10505 10507 10507 10507 10506 10503 10502 10502 10502 10501 10501 10501 10502 10502 10501 10501 10501
10377 10381 10382 10382 10383 10384 10386 10390 10395 10399 10402 10405 10405 10406 10408 10411 10415 10419 10420 10421 10424 10428 10432 10435 10437 10439 10442 10446 10449 10452 10455 10456 10459 10462 10465 10466 10468 10470 10471 10472 10474 10475 10477 10477 10477 10477 10476 10475 10476 10476 10475 10476 10477 10477 10477 10477 10477 10478 10480 10483 10487 10489 10491 10491 10491 10492 10493 10494 10495 10496 10498 10498 10498 10498 10496 10494 10494 10494 10493 10492 10492 10493 10493 10492 10492 10492
10372 10375 10375 10376 10379 10379 10380 10383 10388 10392 10396 10399 10399 10398 10400 10404 10407 10409 10411 10413 10418 10423 10425 10428 10430 10433 10436 10439 10442 10446 10448 10450 10452 10455 10456 10457 10458 10460 10462 10464 10466 10468 10471 10470 10469 10469 10469 10468 10468 10469 10469 10469 10469 10468 10468 10468 10469 10470 10472 10474 10477 10480 10482 10483 10482 10482 10483 10484 10485 10485 10486 10487 10487 10486 10485 10485 10484 10484 10483 10482 10482 10483 10483 10482 10481 10481
10367 10368 10368 10370 10373 10373 10374 10376 10379 10383 10387 10391 10390 10390 10392 10395 10397 10399 10404 10408 10413 10418 10421 10423 10425 10427 10430 10432 10434 10437 10440 10442 10444 10446 10447 10448 10449 10450 10453 10457 10459 10461 10464 10464 10463 10462 10462 10462 10461 10461 10462 10462 10462 10461 10461 10461 10461 10462 10463 10466 10467 10469 10471 10473 10472 10472 10472 10473 10473 10474 10475 10475 10475 10475 10475 10474 10473 10473 10473 10473 10472 10471 10470 10469 10469 10470
10359 10359 10359 10361 10362 10362 10364 10366 10369 10373 10378 10381 10383 10383 10384 10387 10389 10391 10397 10403 10408 10413 10416 10417 10419 10420 10422 10423 10424 10428 10432 10434 10436 10438 10439 10440 10440 10441 10444 10449 10453 10454 10455 10456 10456 10455 10455 10456 10455 10455 10455 10455 10455 10454 10454 10454 10453 10452 10453 10454 10455 10456 10457 10459 10461 10461 10461 10461 10461 10462 10463 10463 10463 10463 10463 10463 10462 10462 10463 10464 10463 10461 10459 10458 10457 10458
10348 10348 10349 10351 10352 10352 10355 10359 10362 10366 10370 10374 10376 10376 10377 10380 10382 10383 10387 10394 10402 10406 10408 10409 10410 10411 10412 10413 10416 10420 10424 10426 10427 10429 10430 10431 10433 10435 10437 10440 10443 10445 10446 10447 10448 10447 10447 10447 10447 10447 10447 10447 10447 10446 10446 10446 10445 10444 10444 10444 10444 10443 10444 10445 10447 10448 10449 10449 10448 10448 10449 10450 10451 10451 10451 10451 10451 10451 10452 10453 10454 10453 10450 10448 10446 10445
10339 10340 10341 10344 10346 10347 10350 10354 10357 10360 10363 10366 10367 10368 10370 10373 10374 10375 10377 10383 10392 10398 10400 10400 10400 10400 10402 10405 10409 10412 10415 10417 10418 10420 10422 10424 10426 10427 10429 10430 10432 10434 10435 10437 10438 10438 10437 10438 10439 10439 10439 10439 10439 10438 10438 10437 10436 10435 10435 10435 10434 10434 10433 10434 10434 10435 10435 10435 10435 10435 10435 10435 10436 10437 10438 10438 10437 10437 10437 10439 10441 10442 10441 10439 10437 10435
10332 10333 10334 10336 10339 10342 10345 10349 10352 10355 10357 10359 10360 10362 10365 10367 10367 10369 10370 10373 10379 10387 10392 10392 10390 10389 10392 10396 10401 10404 10406 10408 10409 10411 10414 10416 10417 10418 10419 10420 10421 10422 10424 10425 10427 10427 10427 10428 10429 10429 10429 10429 10429 10429 10428 10428 10427 10426 10426 10426 10425 10425 10424 10424 10424 10424 10423 10422 10422 10422 10422 10422 10422 10423 10423 10424 10425 10424 10424 10425 10426 10428 10428 10428 10427 10426
10324 10325 10326 10328 10331 10335 10339 10343 10346 10349 10350 10352 10354 10357 10359 10360 10361 10363 10364 10365 10368 10375 10380 10383 10382 10382 10383 10387 10391 10394 10396 10398 10399 10401 10404 10405 10406 10408 10409 10410 10411 10412 10412 10414 10415 10416 10417 10418 10418 10419 10419 10419 10418 10418 10418 10418 10417 10417 10416 10416 10416 10415 10415 10415 10415 10415 10414 10413 10411 10409 10409 10409 10408 10408 10408 10408 10409 10410 10409 10409 10410 10412 10413 10414 10414 10414
10315 10317 10319 10321 10323 10327 10331 10335 10338 10341 10343 10345 10347 10349 10351 10352 10353 10354 10355 10356 10358 10362 10366 10370 10373 10375 10377 10380 10381 10382 10384 10387 10389 10391 10393 10395 10396 10398 10398 10399 10400 10401 10402 10402 10403 10405 10406 10407 10408 10408 10408 10407 10407 10407 10407 10407 10407 10406 10406 10406 10406 10406 10406 10405 10405 10405 10405 10404 10402 10400 10398 10397 10396 10395 10394 10393 10393 10393 10392 10392 10392 10392 10393 10395 10396 10398
10307 10309 10311 10313 10316 10318 10322 10325 10329 10333 10335 10337 10338 10340 10342 10343 10344 10344 10345 10346 10347 10350 10353 10357 10361 10364 10366 10369 10371 10372 10373 10376 10378 10380 10382 10384 10387 10387 10387 10388 10389 10391 10391 10392 10393 10394 10395 10397 10397 10397 10396 10396 10396 10395 10395 10395 10395 10395 10395 10395 10395 10395 10395 10395 10394 10394 10393 10392 10392 10391 10390 10388 10387 10386 10384 10382 10380 10379 10378 10376 10375 10375 10375 10376 10377 10379
10300 10302 10304 10305 10308 10310 10313 10316 10320 10324 10327 10328 10329 10329 10331 10333 10334 10334 10336 10337 10337 10339 10342 10345 10349 10351 10353 10356 10359 10361 10363 10365 10367 10369 10372 10374 10376 10376 10376 10377 10378 10380 10382 10383 10383 10383 10384 10385 10386 10386 10385 10385 10385 10384 10384 10383 10382 10382 10382 10382 10381 10382 10382 10382 10382 10382 10380 10379 10379 10379 10379 10379 10379 10378 10376 10374 10371 10370 10368 10365 10363 10362 10363 10363 10363 10363
10292 10293 10294 10297 10300 10303 10305 10307 10310 10313 10316 10318 10318 10318 10319 10321 10323 10325 10327 10328 10328 10329 10330 10332 10335 10339 10342 10345 10347 10350 10352 10353 10356 10359 10362 10364 10365 10365 10365 10365 10367 10370 10372 10373 10373 10372 10372 10373 10373 10374 10374 10374 10374 10374 10373 10372 10371 10370 10370 10370 10369 10369 10369 10368 10368 10368 10367 10366 10366 10366 10367 10368 10368 10366 10365 10363 10361 10359 10357 10355 10353 10351 10352 10353 10351 10351
10284 10284 10287 10290 10293 10295 10297 10299 10301 10303 10304 10306 10306 10306 10307 10310 10313 10315 10317 10318 10318 10319 10319 10320 10323 10327 10331 10334 10337 10340 10341 10342 10343 10347 10351 10354 10355 10354 10353 10354 10356 10359 10360 10360 10360 10360 10360 10361 10362 10362 10363 10363 10363 10362 10361 10360 10359 10358 10358 10357 10356 10356 10355 10355 10355 10354 10354 10353 10353 10354 10354 10355 10353 10352 10350 10349 10347 10345 10344 10342 10340 10340 10341 10341 10338 10336
10278 10279 10281 10283 10284 10286 10288 10290 10290 10292 10293 10294 10294 10295 10297 10300 10303 10305 10307 10308 10309 10309 10309 10310 10313 10317 10320 10322 10324 10327 10329 10329 10331 10334 10338 10342 10343 10343 10343 10343 10345 10346 10346 10345 10345 10346 10347 10348 10349 10350 10350 10349 10349 10349 10348 10348 10347 10346 10345 10344 10343 10342 10341 10341 10341 10340 10339 10339 10339 10339 10339 10338 10336 10334 10333 10333 10332 10330 10329 10328 10327 10326 10326 10326 10323 10320